When you browse on this site, cookies collect data to enhance your experience and personalize the content and advertising you see.
Visit our Privacy Policy to learn more. By continuing to use the site, you agree to this use of cookies and data.
  • In Latvia
  • List of Countries
  • For 7 days
  • Water Temperature
  • Weather Map
  • Weather Widgets
  • user-avatar
    Login

    Hourly Weather Nuwejba

    Today, 26 May, Tuesday

    Time Temperature Precipitation Wind Pressure Humidity
    00:00 +17°C° 0 mm 2 mps 692 mmHg 33%
    01:00 +17°C° 0 mm 2 mps 691 mmHg 33%
    02:00 +17°C° 0 mm 2 mps 691 mmHg 32%
    03:00 +16°C° 0 mm 2 mps 691 mmHg 34%
    04:00 +16°C° 0 mm 2 mps 691 mmHg 36%
    05:00 +16°C° 0 mm 2 mps 691 mmHg 37%
    06:00 +18°C° 0 mm 2 mps 691 mmHg 33%
    07:00 +20°C° 0 mm 2 mps 691 mmHg 28%
    08:00 +23°C° 0 mm 2 mps 692 mmHg 24%
    09:00 +26°C° 0 mm 2 mps 692 mmHg 20%
    10:00 +28°C° 0 mm 2 mps 692 mmHg 17%
    11:00 +30°C° 0 mm 2 mps 693 mmHg 14%
    12:00 +31°C° 0 mm 2 mps 692 mmHg 12%
    13:00 +32°C° 0 mm 2 mps 692 mmHg 11%
    14:00 +34°C° 0 mm 2 mps 692 mmHg 10%
    15:00 +34°C° 0 mm 2 mps 692 mmHg 10%
    16:00 +34°C° 0 mm 2 mps 692 mmHg 10%
    17:00 +34°C° 0 mm 3 mps 691 mmHg 10%
    18:00 +30°C° 0 mm 3 mps 691 mmHg 14%
    19:00 +28°C° 0 mm 4 mps 691 mmHg 19%
    20:00 +26°C° 0 mm 4 mps 691 mmHg 23%
    21:00 +25°C° 0 mm 4 mps 691 mmHg 29%
    22:00 +22°C° 0 mm 3 mps 691 mmHg 34%
    23:00 +21°C° 0 mm 2 mps 691 mmHg 40%

    Tomorrow, 27 May, Wednesday

    Time Temperature Precipitation Wind Pressure Humidity
    00:00 +21°C° 0 mm 2 mps 690 mmHg 39%
    01:00 +20°C° 0 mm 2 mps 690 mmHg 39%
    02:00 +20°C° 0 mm 2 mps 690 mmHg 38%
    03:00 +19°C° 0 mm 2 mps 690 mmHg 37%
    04:00 +19°C° 0 mm 2 mps 690 mmHg 36%
    05:00 +19°C° 0 mm 2 mps 690 mmHg 36%
    06:00 +21°C° 0 mm 2 mps 691 mmHg 31%
    07:00 +24°C° 0 mm 2 mps 691 mmHg 26%
    08:00 +26°C° 0 mm 3 mps 692 mmHg 21%
    09:00 +28°C° 0 mm 3 mps 692 mmHg 19%
    10:00 +29°C° 0 mm 3 mps 692 mmHg 17%
    11:00 +32°C° 0 mm 4 mps 692 mmHg 16%
    12:00 +33°C° 0 mm 4 mps 692 mmHg 15%
    13:00 +33°C° 0 mm 4 mps 692 mmHg 14%
    14:00 +34°C° 0 mm 5 mps 692 mmHg 14%
    15:00 +33°C° 0 mm 5 mps 692 mmHg 15%
    16:00 +33°C° 0 mm 5 mps 692 mmHg 15%
    17:00 +33°C° 0 mm 6 mps 692 mmHg 16%
    18:00 +29°C° 0 mm 6 mps 692 mmHg 23%
    19:00 +27°C° 0 mm 5 mps 692 mmHg 29%
    20:00 +23°C° 0 mm 5 mps 692 mmHg 36%
    21:00 +22°C° 0 mm 5 mps 692 mmHg 38%
    22:00 +21°C° 0 mm 4 mps 692 mmHg 39%
    23:00 +20°C° 0 mm 3 mps 692 mmHg 41%

    Day after tomorrow, 28 May, Thursday

    Time Temperature Precipitation Wind Pressure Humidity
    00:00 +19°C° 0 mm 3 mps 691 mmHg 43%
    01:00 +19°C° 0 mm 3 mps 691 mmHg 44%
    02:00 +18°C° 0 mm 3 mps 691 mmHg 46%
    03:00 +17°C° 0 mm 3 mps 691 mmHg 47%
    04:00 +17°C° 0 mm 2 mps 691 mmHg 48%
    05:00 +16°C° 0 mm 2 mps 691 mmHg 49%
    06:00 +18°C° 0 mm 3 mps 691 mmHg 45%
    07:00 +19°C° 0 mm 3 mps 692 mmHg 42%
    08:00 +21°C° 0 mm 3 mps 692 mmHg 39%
    09:00 +23°C° 0 mm 4 mps 692 mmHg 34%
    10:00 +26°C° 0 mm 4 mps 692 mmHg 30%
    11:00 +28°C° 0 mm 4 mps 693 mmHg 26%
    12:00 +29°C° 0 mm 5 mps 692 mmHg 24%
    13:00 +30°C° 0 mm 5 mps 692 mmHg 23%
    14:00 +30°C° 0 mm 6 mps 692 mmHg 21%
    15:00 +30°C° 0 mm 6 mps 691 mmHg 22%
    16:00 +29°C° 0 mm 7 mps 691 mmHg 22%
    17:00 +29°C° 0 mm 7 mps 691 mmHg 22%
    18:00 +27°C° 0 mm 7 mps 691 mmHg 27%
    19:00 +24°C° 0 mm 7 mps 691 mmHg 33%
    20:00 +22°C° 0 mm 7 mps 691 mmHg 38%
    21:00 +21°C° 0 mm 6 mps 691 mmHg 39%
    22:00 +20°C° 0 mm 4 mps 692 mmHg 39%
    23:00 +19°C° 0 mm 3 mps 692 mmHg 40%

    29 May, Friday

    Time Temperature Precipitation Wind Pressure Humidity
    00:00 +18°C° 0 mm 3 mps 692 mmHg 40%
    01:00 +17°C° 0 mm 3 mps 691 mmHg 41%
    02:00 +17°C° 0 mm 3 mps 691 mmHg 42%
    03:00 +16°C° 0 mm 3 mps 691 mmHg 46%
    04:00 +16°C° 0 mm 3 mps 691 mmHg 50%
    05:00 +14°C° 0 mm 3 mps 691 mmHg 55%
    06:00 +17°C° 0 mm 3 mps 692 mmHg 47%
    07:00 +19°C° 0 mm 4 mps 692 mmHg 39%
    08:00 +21°C° 0 mm 5 mps 693 mmHg 31%
    09:00 +23°C° 0 mm 5 mps 693 mmHg 27%
    10:00 +24°C° 0 mm 6 mps 693 mmHg 23%
    11:00 +27°C° 0 mm 6 mps 693 mmHg 20%
    12:00 +28°C° 0 mm 6 mps 693 mmHg 18%
    13:00 +28°C° 0 mm 6 mps 693 mmHg 16%
    14:00 +29°C° 0 mm 7 mps 692 mmHg 14%
    15:00 +28°C° 0 mm 7 mps 692 mmHg 15%
    16:00 +28°C° 0 mm 8 mps 692 mmHg 15%
    17:00 +27°C° 0 mm 8 mps 692 mmHg 15%
    18:00 +24°C° 0 mm 8 mps 692 mmHg 23%
    19:00 +22°C° 0 mm 7 mps 692 mmHg 31%
    20:00 +18°C° 0 mm 7 mps 692 mmHg 39%
    21:00 +17°C° 0 mm 6 mps 692 mmHg 46%
    22:00 +16°C° 0 mm 5 mps 692 mmHg 54%
    23:00 +16°C° 0 mm 3 mps 692 mmHg 61%

    30 May, Saturday

    Time Temperature Precipitation Wind Pressure Humidity
    00:00 +14°C° 0 mm 3 mps 691 mmHg 59%
    01:00 +14°C° 0 mm 3 mps 691 mmHg 57%
    02:00 +14°C° 0 mm 2 mps 691 mmHg 56%
    03:00 +14°C° 0 mm 2 mps 691 mmHg 54%
    04:00 +14°C° 0 mm 2 mps 691 mmHg 53%
    05:00 +13°C° 0 mm 2 mps 691 mmHg 52%
    06:00 +16°C° 0 mm 3 mps 691 mmHg 42%
    07:00 +18°C° 0 mm 3 mps 692 mmHg 32%
    08:00 +20°C° 0 mm 4 mps 693 mmHg 22%
    09:00 +22°C° 0 mm 4 mps 693 mmHg 20%
    10:00 +25°C° 0 mm 4 mps 693 mmHg 17%
    11:00 +26°C° 0 mm 5 mps 693 mmHg 15%
    12:00 +28°C° 0 mm 4 mps 693 mmHg 14%
    13:00 +29°C° 0 mm 4 mps 692 mmHg 13%
    14:00 +30°C° 0 mm 4 mps 692 mmHg 12%
    15:00 +30°C° 0 mm 5 mps 692 mmHg 12%
    16:00 +30°C° 0 mm 5 mps 692 mmHg 12%
    17:00 +29°C° 0 mm 6 mps 692 mmHg 12%
    18:00 +27°C° 0 mm 6 mps 692 mmHg 23%
    19:00 +23°C° 0 mm 6 mps 692 mmHg 34%
    20:00 +20°C° 0 mm 5 mps 692 mmHg 45%
    21:00 +19°C° 0 mm 5 mps 692 mmHg 49%
    22:00 +18°C° 0 mm 4 mps 692 mmHg 54%
    23:00 +17°C° 0 mm 3 mps 692 mmHg 59%

    31 May, Sunday

    Time Temperature Precipitation Wind Pressure Humidity
    00:00 +17°C° 0 mm 3 mps 692 mmHg 59%
    01:00 +16°C° 0 mm 3 mps 692 mmHg 59%
    02:00 +16°C° 0 mm 3 mps 691 mmHg 59%
    03:00 +14°C° 0 mm 3 mps 692 mmHg 60%
    04:00 +14°C° 0 mm 3 mps 692 mmHg 61%
    05:00 +14°C° 0 mm 3 mps 692 mmHg 62%
    06:00 +17°C° 0 mm 3 mps 692 mmHg 49%
    07:00 +20°C° 0 mm 3 mps 692 mmHg 37%
    08:00 +22°C° 0 mm 4 mps 693 mmHg 25%
    09:00 +25°C° 0 mm 4 mps 693 mmHg 21%
    10:00 +27°C° 0 mm 5 mps 693 mmHg 17%
    11:00 +29°C° 0 mm 5 mps 693 mmHg 13%
    12:00 +30°C° 0 mm 6 mps 693 mmHg 12%
    13:00 +32°C° 0 mm 6 mps 693 mmHg 11%
    14:00 +33°C° 0 mm 6 mps 693 mmHg 11%
    15:00 +32°C° 0 mm 7 mps 692 mmHg 12%
    16:00 +31°C° 0 mm 8 mps 692 mmHg 14%
    17:00 +29°C° 0 mm 8 mps 692 mmHg 16%
    18:00 +27°C° 0 mm 7 mps 692 mmHg 23%
    19:00 +23°C° 0 mm 6 mps 692 mmHg 29%
    20:00 +21°C° 0 mm 5 mps 692 mmHg 36%
    21:00 +20°C° 0 mm 5 mps 692 mmHg 40%
    22:00 +19°C° 0 mm 4 mps 692 mmHg 44%
    23:00 +18°C° 0 mm 3 mps 692 mmHg 48%
    Show more